CZ-6A DEB, 54270

Orbit data source: Space-Track

CZ-6A DEB, 54270 is space debris in SSO originally from a launch on Fri, 11 Nov 2022 UTC launched from the Taiyaun Space Center, China (TSC). Debris objects in space refer to the collection of defunct objects orbiting the Earth. Examples of debris include non-operational satellites, rocket bodies, and fragments generated from explosions, collisions, or faulty payload assembly.

Loading next visibility...
Identifier
54270, 2022-151M
Orbit
SSO
Country
Flag of CNCN / PRC
Related business
Manufacturer
SAST
Mission
Spacecraft
Bus & Motor
Unknown
Mass
Unknown
Launch date (UTC)
2022-11-11 (4 years ago)
Launch vehicle
Unknown
Launch site
Taiyaun Space Center, China (TSC)
Object type
Payload
Rocket body
Debris
Shape & HBR
Unknown shape, 0.8 m
Radar Cross Section
Large (>1 m²)

Expand to show TLE details & history
Last TLE update: 16 hours ago

TLE from 16 hours ago
0 CZ-6A DEB
1 54270U 22151M   26207.93232819  .00000014  00000-0  36938-4 0  9991
2 54270  98.8973 194.5315 0082537 285.7112  73.4961 14.02361503188993
Epoch: 2026-07-26T22:22Z
TLE epoch observation values (Epoch: 2026-07-26T22:22:33.155Z)
Latitude
-0.00005°
Longitude
-85.7298°
Altitude
871.935 km
Speed
7.425 km/s
True Right ascension
12h 58m 07s
True Declination
0° 00' 00"
Sunlit
Object was in daylight at epoch
Visualization orbit readout
Latitude
Unknown
Longitude
Unknown
Altitude
Unknown
Speed
Unknown
Apparent Right ascension
Unknown
Apparent Declination
Unknown
Sunlit
N/A
Visualization observer readout
Local Sidereal Time
04:12:05
Azimuth
Unknown
Elevation
Unknown
Doppler factor
Unknown
Orbital elements
Apogee altitude
942.75 km
Perigee altitude
822.89 km
Semi-major axis
7,260.957 km
Eccentricity
0.00825
Inclination
98.8973°
RAAN
194.5315°
Arg. of periapsis
285.7112°
True anomaly
74.40556°
Mean anomaly
73.4961°
Eccentric anomaly
73.95057°
Mean motion
3.50794 °/min
Orbital period
102.62 mins
BSTAR
0.000036938
Loading maneuver chart data...
Computing Atmospheric mass density...
Loading historical data...
Loading historical data...
Loading historical data...
Loading historical data...
Loading historical data...
Loading historical data...
Loading historical data...

Documentation

Showing up to 5 results
|